Weather in Hastings

New Zealand     39°37′57″S   176°50′00″E
temp.,
°C
wind,
m/s
gust,
m/s
humid.,
%
clouds,
%
prec.,
mm/h
press.,
hPa
HPBL,
m
20 april, tue
tue2000:00+8wsw1185100 0.0 101911
03:00+8wsw2288100 0.0 101820
06:00+7w1193100 0.0 101811
09:00+14nnw125999 0.0 1019245
12:00+19nne354293 0.0 10161011
15:00+20ne4742100 0.0 10121061
18:00+17nne4959100 0.0 1012408
21:00+14ne3889100 0.3 1011288
21 april, wed
wed2100:00+14ne3994100 0.7 1009417
03:00+13ene2599100 6.3 1006174
06:00+14nne1599100 7.2 1005284
09:00+15ne1296100 0.0 1004181
12:00+22sw12584 0.0 1002758
15:00+20s4670100 0.7 1001818
18:00+14s279536 1.6 1003256
21:00+13sw239884 0.0 100675
22 april, thu
thu2200:00+12ssw249923 0.0 100798
03:00+12ssw239763 0.0 100889
06:00+11ssw239441 0.0 101059
09:00+13ssw237995 0.0 1012203
12:00+20ssw12420 0.0 10121189
15:00+20ene32477 0.0 10111084
18:00+12ne129216 0.0 101231
21:00+10nne01965 0.0 101411
23 april, fri
fri2300:00+10nw00970 0.0 101410
03:00+9wsw11961 0.0 101411
06:00+9sw11969 0.0 101413
09:00+14n0176100 0.0 1013163
12:00+21n134553 0.0 10121082
15:00+21ene44443 0.0 1009931
18:00+13ese1185100 0.0 100913
21:00+13wsw2282100 0.0 101033
24 april, sat
sat2400:00+13n1174100 0.0 101013
03:00+12nne1176100 0.0 100939
06:00+13s0077100 0.0 100913
09:00+17w12616 0.0 1010252
12:00+22w24370 0.0 10081693
15:00+22w45349 0.0 10071964
18:00+14s22622 0.0 100821
21:00+10sw11780 0.0 101015